Content
SEND FEEDBACK

Daily
Averages
Monthly
Summary
Mexico

SAN MARTINIANO, QUINTANA ROO


Home > North America > Mexico > Quintana Roo
Elevation: 49 feet     Latitude: 20 47N     Longitude: 087 16W

WEATHER
 
SELECT A DAY
Number of Records: 202,104;   Date Range: 2/21/06 - 10/23/14
 
SHARE

PRINT THIS DATA

[ ← Previous Day ]
WEATHER ALMANAC - FEBRUARY 4, 2014
[ Next Day → ]
[ °C ]   °F
Weather ElementAverageHighLow
Temperature73.6 °F87.8 °F (3:35 pm)62.6 °F (5:15 am)
Dewpoint35 °F69.8 °F (9:15 pm) (7:00 pm)
Humidity61.3 %94 % (9:55 pm)38 % (3:35 pm)
Barometer30.10 in30.16 in (9:55 am)30.03 in (4:15 pm)
Wind Speed3.5 mph10.4 mph (1:35 pm)
Wind Gust17.3 mph (3:55 pm)
Weather ElementAverage
Visibility6.3 mi
Wind DirectionE (88 °)

Weather ElementTotal
Precipitation---
Cooling Degree Days10.2 (Base 65)
Growing Degree Days25.2 (Base 50)
Averaged from 70 records on February 4, 2014
WEATHER CONDITIONS BREAKOUT
WIND DIRECTION BREAKOUT
WEATHER BY HOUR - FEBRUARY 4, 2014
[ °C ]   °F
Local TimeTemperatureDewpointHumidityBarometerVisibilityWind DirectionWind SpeedGust SpeedPrecipitationEventsConditions
12:35 AM66.2 °F0.0 °F30.12 in0.2 miNNE (20°)3.5 mphFogFog
12:55 AM66.2 °F0.0 °F30.11 in0.2 miCalmFogFog
1:15 AM66.2 °F0.0 °F30.11 in0.2 miCalmFogFog
1:35 AM66.2 °F0.0 °F30.11 in0.2 miCalmFogFog
1:55 AM66.2 °F0.0 °F30.11 in0.2 miCalmFogFog
2:15 AM66.2 °F0.0 °F30.11 in0.2 miCalmFogFog
2:35 AM64.4 °F0.0 °F30.11 in0.2 miCalmFogFog
2:55 AM64.4 °F0.0 °F30.11 in0.2 miCalmFogFog
3:15 AM64.4 °F0.0 °F30.10 in0.2 miCalmFogFog
3:35 AM64.4 °F0.0 °F30.11 in0.2 miCalmFogFog
3:55 AM64.4 °F0.0 °F30.10 in0.5 miWNW (290°)3.5 mphFogFog
4:15 AM64.4 °F0.0 °F30.10 in0.2 miWNW (300°)4.6 mphFogFog
4:35 AM64.4 °F0.0 °F30.09 in0.5 miCalmFogFog
4:55 AM64.4 °F0.0 °F30.10 in0.5 miCalmFogFog
5:15 AM62.6 °F0.0 °F30.11 in0.5 miCalmFogFog
5:35 AM62.6 °F0.0 °F30.12 in0.5 miCalmFogFog
5:55 AM62.6 °F0.0 °F30.12 in0.5 miCalmFogFog
6:15 AM62.6 °F0.0 °F30.12 in0.2 miCalmFogFog
6:35 AM62.6 °F0.0 °F30.12 in0.5 miCalmFogFog
6:55 AM62.6 °F0.0 °F30.13 in0.5 miCalmFogFog
7:15 AM62.6 °F0.0 °F30.13 in0.2 miCalmFogFog
7:35 AM64.4 °F0.0 °F30.13 in0.2 miCalmFogFog
7:55 AM64.4 °F0.0 °F30.14 in0.2 miCalmFogFog
8:15 AM64.4 °F0.0 °F30.14 in0.2 miCalmFogFog
8:35 AM66.2 °F0.0 °F30.15 in0.2 miCalmFogFog
8:55 AM66.2 °F0.0 °F30.15 in0.5 miCalmFogFog
9:15 AM68.0 °F0.0 °F30.15 in3.0 miCalmMostly Cloudy
9:35 AM69.8 °F0.0 °F30.15 in7.0 miCalmScattered Clouds
9:55 AM71.6 °F0.0 °F30.16 in10.0 miCalmClear
10:15 AM71.6 °F0.0 °F30.16 in10.0 miESE (110°)3.5 mphClear
10:35 AM73.4 °F0.0 °F30.15 in10.0 miSSE (150°)3.5 mphClear
10:55 AM78.8 °F0.0 °F30.15 in10.0 miSE (130°)3.5 mphClear
11:15 AM80.6 °F66.2 °F61 %30.14 in10.0 miSSE (160°)8.1 mphClear
11:35 AM82.4 °F66.2 °F58 %30.13 in10.0 miSouth (170°)4.6 mphScattered Clouds
11:55 AM82.4 °F66.2 °F58 %30.12 in10.0 miSSE (160°)5.8 mphClear
12:15 PM84.2 °F66.2 °F55 %30.12 in10.0 miSE (140°)9.2 mphScattered Clouds
12:35 PM84.2 °F66.2 °F55 %30.10 in10.0 miSSE (150°)6.9 mphMostly Cloudy
12:55 PM84.2 °F64.4 °F51 %30.09 in10.0 miSSE (150°)8.1 mphScattered Clouds
1:15 PM84.2 °F64.4 °F51 %30.08 in10.0 miSSE (150°)9.2 mphMostly Cloudy
1:35 PM84.2 °F64.4 °F51 %30.07 in10.0 miSouth (170°)10.4 mphMostly Cloudy
1:55 PM84.2 °F64.4 °F51 %30.06 in10.0 miESE (120°)10.4 mphMostly Cloudy
2:15 PM86.0 °F62.6 °F45 %30.06 in10.0 miSE (140°)9.2 mphScattered Clouds
2:35 PM84.2 °F62.6 °F48 %30.05 in10.0 miSSE (150°)6.9 mphScattered Clouds
2:55 PM86.0 °F62.6 °F45 %30.05 in10.0 miSouth (180°)8.1 mphScattered Clouds
3:15 PM86.0 °F62.6 °F45 %30.04 in10.0 miSE (140°)5.8 mphMostly Cloudy
3:35 PM87.8 °F59.0 °F38 %30.04 in10.0 miSE (140°)8.1 mphScattered Clouds
3:55 PM86.0 °F59.0 °F40 %30.04 in10.0 miSE (140°)8.1 mph17.3 mphScattered Clouds
4:15 PM86.0 °F59.0 °F40 %30.03 in10.0 miSE (130°)10.4 mphScattered Clouds
4:35 PM86.0 °F59.0 °F40 %30.04 in10.0 miSE (130°)8.1 mphScattered Clouds
4:55 PM84.2 °F59.0 °F42 %30.04 in10.0 miSE (140°)4.6 mphClear
5:15 PM84.2 °F59.0 °F42 %30.04 in10.0 miSE (130°)8.1 mphMostly Cloudy
5:35 PM84.2 °F59.0 °F42 %30.04 in10.0 miSE (130°)8.1 mphScattered Clouds
5:55 PM82.4 °F62.6 °F51 %30.04 in10.0 miSE (140°)6.9 mphScattered Clouds
6:15 PM80.6 °F62.6 °F54 %30.04 in10.0 miCalmMostly Cloudy
6:35 PM80.6 °F66.2 °F61 %30.04 in10.0 miSW (230°)4.6 mphMostly Cloudy
7:15 PM77.0 °F66.2 °F69 %30.06 in10.0 miWSW (240°)5.8 mphOvercast
7:35 PM77.0 °F66.2 °F69 %30.07 in10.0 miWSW (240°)3.5 mphMostly Cloudy
7:55 PM77.0 °F66.2 °F69 %30.08 in10.0 miSW (230°)3.5 mphMostly Cloudy
8:15 PM75.2 °F66.2 °F73 %30.08 in10.0 miCalmScattered Clouds
8:35 PM73.4 °F66.2 °F78 %30.08 in10.0 miCalmScattered Clouds
8:55 PM71.6 °F68.0 °F88 %30.09 in10.0 miENE (70°)3.5 mphClear
9:15 PM73.4 °F69.8 °F88 %30.09 in10.0 miCalmClear
9:35 PM73.4 °F66.2 °F78 %30.09 in10.0 miSW (220°)3.5 mphClear
9:55 PM71.6 °F69.8 °F94 %30.10 in10.0 miCalmClear
10:15 PM71.6 °F69.8 °F94 %30.09 in10.0 miSE (140°)3.5 mphClear
10:35 PM71.6 °F68.0 °F88 %30.09 in10.0 miSE (140°)5.8 mphClear
10:55 PM73.4 °F66.2 °F78 %30.10 in10.0 miSSE (150°)4.6 mphClear
11:15 PM73.4 °F66.2 °F78 %30.10 in10.0 miSE (140°)4.6 mphClear
11:35 PM71.6 °F66.2 °F83 %30.09 in10.0 miSSE (150°)5.8 mphClear
11:55 PM73.4 °F66.2 °F78 %30.09 in10.0 miSSE (150°)5.8 mphClear
Hourly data recorded from KPCM, located miles away from San Martiniano, Quintana Roo







STORIES FROM OUR PARTNERS